| time (UTC) | temp C | wind direction | speed KPH | gust KPH | rain 1hr cm | rain 24hr cm | rain mn cm | humidity % | barometer mb |
| 20260507193026 | 7 | 20 | 4.8 | 8.0 | 0.00 | 0.00 | 0.00 | 46 | 1010.4 |
| 20260507191527 | 7 | 14 | 0.0 | 6.4 | 0.00 | 0.00 | 0.00 | 45 | 1010.6 |
| 20260507190024 | 7 | 25 | 3.2 | 11.3 | 0.00 | 0.00 | 0.00 | 43 | 1010.7 |
| 20260507184521 | 7 | 18 | 4.8 | 12.9 | 0.00 | 0.00 | 0.00 | 43 | 1010.7 |
| 20260507183021 | 7 | 15 | 4.8 | 9.7 | 0.00 | 0.00 | 0.00 | 41 | 1010.7 |
| 20260507181520 | 8 | 346 | 0.0 | 3.2 | 0.00 | 0.00 | 0.00 | 40 | 1010.8 |
| 20260507180018 | 8 | 349 | 0.0 | 4.8 | 0.00 | 0.00 | 0.00 | 38 | 1010.9 |
| 20260507174537 | 8 | 331 | 1.6 | 4.8 | 0.00 | 0.00 | 0.00 | 40 | 1010.9 |
| 20260507173017 | 8 | 354 | 0.0 | 1.6 | 0.00 | 0.00 | 0.00 | 40 | 1011.1 |
| 20260507171511 | 8 | 13 | 0.0 | 3.2 | 0.00 | 0.00 | 0.00 | 41 | 1011.3 |
| 20260507170011 | 8 | 345 | 0.0 | 3.2 | 0.00 | 0.00 | 0.00 | 43 | 1011.5 |
| 20260507164509 | 8 | 353 | 0.0 | 4.8 | 0.00 | 0.00 | 0.00 | 43 | 1011.7 |
| 20260507163007 | 8 | 330 | 0.0 | 3.2 | 0.00 | 0.00 | 0.00 | 46 | 1011.8 |
| 20260507161505 | 7 | 6 | 0.0 | 6.4 | 0.00 | 0.00 | 0.00 | 48 | 1012.0 |
| 20260507160008 | 7 | 330 | 0.0 | 3.2 | 0.00 | 0.00 | 0.00 | 48 | 1012.1 |
| 20260507154505 | 7 | 14 | 1.6 | 4.8 | 0.00 | 0.00 | 0.00 | 46 | 1012.1 |
| 20260507153003 | 6 | 356 | 0.0 | 4.8 | 0.00 | 0.00 | 0.00 | 45 | 1012.1 |
| 20260507151502 | 6 | 22 | 0.0 | 6.4 | 0.00 | 0.00 | 0.00 | 46 | 1012.1 |
| 20260507150002 | 6 | 15 | 0.0 | 4.8 | 0.00 | 0.00 | 0.00 | 48 | 1012.1 |
| 20260507144501 | 6 | 19 | 1.6 | 8.0 | 0.00 | 0.00 | 0.00 | 49 | 1012.0 |
| 20260507143119 | 7 | 13 | 1.6 | 8.0 | 0.00 | 0.00 | 0.00 | 50 | 1011.9 |
| 20260507141628 | 7 | 318 | 0.0 | 3.2 | 0.00 | 0.00 | 0.00 | 44 | 1011.8 |
| 20260507140112 | 7 | 321 | 0.0 | 4.8 | 0.00 | 0.00 | 0.00 | 42 | 1011.9 |
| 20260507134607 | 7 | 328 | 0.0 | 1.6 | 0.00 | 0.00 | 0.00 | 43 | 1012.0 |
| 20260507133103 | 7 | 347 | 0.0 | 1.6 | 0.00 | 0.00 | 0.00 | 43 | 1012.0 |
| 20260507131617 | 6 | 10 | 0.0 | 0.0 | 0.00 | 0.00 | 0.00 | 42 | 1012.0 |
| 20260507130052 | 6 | 30 | 0.0 | 0.0 | 0.00 | 0.00 | 0.00 | 43 | 1011.9 |
| 20260507124555 | 6 | 88 | 0.0 | 0.0 | 0.00 | 0.00 | 0.00 | 47 | 1011.9 |
| 20260507123050 | 5 | 99 | 0.0 | 1.6 | 0.00 | 0.00 | 0.00 | 49 | 1012.0 |
| 20260507121543 | 3 | 82 | 0.0 | 0.0 | 0.00 | 0.00 | 0.00 | 51 | 1012.0 |
| 20260507120044 | 3 | 82 | 0.0 | 0.0 | 0.00 | 0.00 | 0.00 | 53 | 1012.0 |
| 20260507114542 | 3 | 82 | 0.0 | 0.0 | 0.00 | 0.00 | 0.00 | 55 | 1011.9 |
| 20260507113104 | 2 | 82 | 0.0 | 1.6 | 0.00 | 0.00 | 0.00 | 56 | 1011.8 |
| 20260507111541 | 2 | 65 | 0.0 | 0.0 | 0.00 | 0.00 | 0.00 | 57 | 1011.6 |
| 20260507110041 | 2 | 65 | 0.0 | 0.0 | 0.00 | 0.00 | 0.00 | 57 | 1011.4 |
| 20260507104544 | 2 | 65 | 0.0 | 0.0 | 0.00 | 0.00 | 0.00 | 57 | 1011.4 |
| 20260507103038 | 2 | 65 | 0.0 | 0.0 | 0.00 | 0.00 | 0.00 | 56 | 1011.5 |
| 20260507101537 | 2 | 65 | 0.0 | 0.0 | 0.00 | 0.00 | 0.00 | 56 | 1011.5 |
| 20260507100044 | 2 | 65 | 0.0 | 0.0 | 0.00 | 0.00 | 0.00 | 56 | 1011.5 |
| 20260507094539 | 1 | 65 | 0.0 | 0.0 | 0.00 | 0.00 | 0.00 | 57 | 1011.5 |
| 20260507093035 | 1 | 65 | 0.0 | 0.0 | 0.00 | 0.00 | 0.00 | 57 | 1011.7 |
| 20260507091537 | 1 | 65 | 0.0 | 0.0 | 0.00 | 0.00 | 0.00 | 55 | 1011.7 |
| 20260507090032 | 1 | 65 | 0.0 | 0.0 | 0.00 | 0.00 | 0.00 | 56 | 1011.7 |
| 20260507084546 | 1 | 65 | 0.0 | 0.0 | 0.00 | 0.00 | 0.00 | 55 | 1011.7 |
| 20260507083030 | 1 | 51 | 0.0 | 0.0 | 0.00 | 0.00 | 0.00 | 51 | 1011.8 |
| 20260507081529 | 1 | 51 | 0.0 | 0.0 | 0.00 | 0.00 | 0.00 | 51 | 1011.8 |
| 20260507080029 | 1 | 51 | 0.0 | 0.0 | 0.00 | 0.00 | 0.00 | 53 | 1011.8 |
| 20260507074528 | 2 | 51 | 0.0 | 0.0 | 0.00 | 0.00 | 0.00 | 53 | 1011.6 |
| 20260507073027 | 2 | 51 | 0.0 | 0.0 | 0.00 | 0.00 | 0.00 | 52 | 1011.6 |
| 20260507071527 | 2 | 51 | 0.0 | 0.0 | 0.00 | 0.00 | 0.00 | 51 | 1011.7 |
| 20260507070026 | 1 | 51 | 0.0 | 0.0 | 0.00 | 0.00 | 0.00 | 51 | 1011.7 |
| 20260507064524 | 1 | 51 | 0.0 | 0.0 | 0.00 | 0.00 | 0.00 | 52 | 1011.8 |
| 20260507063022 | 1 | 51 | 0.0 | 0.0 | 0.00 | 0.00 | 0.00 | 51 | 1011.9 |
| 20260507061521 | 1 | 51 | 0.0 | 0.0 | 0.00 | 0.00 | 0.00 | 52 | 1012.1 |
| 20260507060032 | 2 | 51 | 0.0 | 0.0 | 0.00 | 0.00 | 0.00 | 51 | 1012.1 |
| 20260507054515 | 2 | 51 | 0.0 | 0.0 | 0.00 | 0.00 | 0.00 | 50 | 1012.2 |
| 20260507053013 | 2 | 51 | 0.0 | 0.0 | 0.00 | 0.00 | 0.00 | 48 | 1012.3 |
| 20260507051510 | 3 | 51 | 0.0 | 0.0 | 0.00 | 0.00 | 0.00 | 47 | 1012.4 |
| 20260507050024 | 3 | 57 | 0.0 | 4.8 | 0.00 | 0.00 | 0.00 | 46 | 1012.5 |
| 20260507044508 | 3 | 45 | 3.2 | 8.0 | 0.00 | 0.00 | 0.00 | 47 | 1012.4 |
| 20260507043005 | 3 | 40 | 0.0 | 11.3 | 0.00 | 0.00 | 0.00 | 46 | 1012.2 |
| 20260507041501 | 3 | 33 | 4.8 | 8.0 | 0.00 | 0.00 | 0.00 | 48 | 1012.4 |
| 20260507040109 | 3 | 41 | 0.0 | 4.8 | 0.00 | 0.00 | 0.00 | 46 | 1012.3 |
| 20260507034604 | 3 | 71 | 0.0 | 1.6 | 0.00 | 0.00 | 0.00 | 45 | 1012.2 |
| 20260507033103 | 4 | 39 | 0.0 | 1.6 | 0.00 | 0.00 | 0.00 | 45 | 1012.3 |
| 20260507031556 | 4 | 58 | 0.0 | 8.0 | 0.00 | 0.00 | 0.00 | 45 | 1012.7 |
| 20260507030056 | 4 | 49 | 0.0 | 6.4 | 0.00 | 0.00 | 0.00 | 44 | 1012.7 |
| 20260507024556 | 4 | 39 | 3.2 | 9.7 | 0.00 | 0.00 | 0.00 | 45 | 1012.6 |
| 20260507023055 | 4 | 51 | 1.6 | 9.7 | 0.00 | 0.00 | 0.00 | 44 | 1012.7 |
| 20260507021602 | 4 | 35 | 6.4 | 16.1 | 0.00 | 0.00 | 0.00 | 44 | 1012.6 |
| 20260507020054 | 4 | 55 | 8.0 | 16.1 | 0.00 | 0.00 | 0.00 | 44 | 1012.7 |
| 20260507014556 | 4 | 52 | 6.4 | 17.7 | 0.00 | 0.00 | 0.00 | 44 | 1012.7 |
| 20260507013053 | 4 | 63 | 11.3 | 19.3 | 0.00 | 0.00 | 0.00 | 43 | 1012.6 |
| 20260507011556 | 5 | 47 | 11.3 | 19.3 | 0.00 | 0.00 | 0.00 | 41 | 1012.5 |
| 20260507010049 | 5 | 46 | 8.0 | 16.1 | 0.00 | 0.00 | 0.00 | 45 | 1012.3 |
| 20260507004550 | 5 | 62 | 9.7 | 24.1 | 0.00 | 0.00 | 0.00 | 42 | 1012.1 |
| 20260507003048 | 5 | 51 | 1.6 | 22.5 | 0.00 | 0.00 | 0.00 | 44 | 1011.9 |
| 20260507001547 | 5 | 46 | 11.3 | 19.3 | 0.00 | 0.00 | 0.00 | 44 | 1011.8 |
| 20260507000047 | 5 | 39 | 6.4 | 20.9 | 0.00 | 0.00 | 0.00 | 43 | 1011.5 |
| 20260506234603 | 5 | 45 | 11.3 | 22.5 | 0.00 | 0.00 | 0.00 | 43 | 1011.4 |
| 20260506233045 | 5 | 60 | 1.6 | 11.3 | 0.00 | 0.00 | 0.00 | 43 | 1011.4 |
| 20260506231544 | 6 | 46 | 6.4 | 17.7 | 0.00 | 0.00 | 0.00 | 44 | 1011.3 |
| 20260506230043 | 6 | 38 | 11.3 | 27.4 | 0.00 | 0.00 | 0.00 | 44 | 1011.4 |
| 20260506224546 | 6 | 55 | 3.2 | 17.7 | 0.00 | 0.00 | 0.00 | 44 | 1011.3 |
| 20260506223048 | 7 | 37 | 9.7 | 16.1 | 0.00 | 0.00 | 0.00 | 42 | 1011.2 |
| 20260506221542 | 6 | 58 | 16.1 | 24.1 | 0.00 | 0.00 | 0.00 | 44 | 1011.2 |
| 20260506220042 | 7 | 40 | 3.2 | 19.3 | 0.00 | 0.00 | 0.00 | 42 | 1011.1 |
| 20260506214543 | 7 | 44 | 9.7 | 19.3 | 0.00 | 0.00 | 0.00 | 42 | 1011.0 |
| 20260506213039 | 7 | 44 | 1.6 | 20.9 | 0.00 | 0.00 | 0.00 | 43 | 1011.0 |
| 20260506211537 | 6 | 56 | 11.3 | 20.9 | 0.00 | 0.00 | 0.00 | 44 | 1010.9 |
| 20260506210039 | 6 | 57 | 16.1 | 22.5 | 0.00 | 0.00 | 0.00 | 43 | 1010.9 |
| 20260506204548 | 6 | 61 | 8.0 | 20.9 | 0.00 | 0.00 | 0.00 | 44 | 1010.9 |
| 20260506203036 | 6 | 37 | 16.1 | 25.7 | 0.00 | 0.00 | 0.00 | 44 | 1011.0 |
| 20260506201538 | 6 | 44 | 11.3 | 20.9 | 0.00 | 0.00 | 0.00 | 42 | 1011.1 |
| 20260506200035 | 5 | 49 | 14.5 | 20.9 | 0.00 | 0.00 | 0.00 | 43 | 1011.2 |
| 20260506194539 | 6 | 45 | 6.4 | 19.3 | 0.00 | 0.00 | 0.00 | 42 | 1011.1 |